Location: Gellin
(53.4498°N, 14.3207°E)
Time: 23:36:36
(UTC+00:00)

ATLAS 3B R/B - Pass Details

Date: 03 March 2021
Orbit: 1006 x 1189 km, 63.8° (Epoch: 01 April)

Event Time Altitude Azimuth Distance (km) Brightness Sun altitude
Exits shadow 23:51:13 28° 37° (NE) 1,857 4.3 -42.4°
Drops below altitude 10° 23:54:22 10° 47° (NE) 2,906 5.4 -42.3°
Sets 23:57:08 0° 51° (NE) 3,891 6.2 -42.2°
